{"data":{"norad_id":52546,"intl_designator":"2022-051P","name":"STARLINK-3948","alt_names":[],"object_type":"PAYLOAD","status":"ACTIVE","operator":null,"country":"US","launch_date":"2022-05-13","launch_site_code":"AFWTR","launch_vehicle":null,"mission":null,"orbit_class":"UNKNOWN","rcs_meters":null,"size_class":null,"mass_kg":null,"dimensions":null,"purposes":["comms"],"wikipedia_slug":null,"has_3d_model":false,"image_url":null,"decayed_at":null,"tle_current":{"epoch":"2026-09-19T18:23:23.972352Z","epoch_age_seconds":126715,"freshness":"FRESH","line1":"1 52546U 22051P   26262.76624968  .00001934  00000+0  68383-4 0  9996","line2":"2 52546  53.1605 321.1827 0001422 109.9199 250.1957 15.34385173240976","mean_motion":15.34385173,"eccentricity":0.0001422,"inclination_deg":53.1605,"raan_deg":321.1827,"arg_perigee_deg":109.9199,"mean_anomaly_deg":250.1957,"bstar":6.8383e-5,"rev_number":24097,"period_min":93.84866494666,"perigee_km":461.77453578181,"apogee_km":463.72008327944,"semimajor_km":6840.8843095306,"source":"CELESTRAK","updated_at":"2026-09-20T09:00:40.060536Z"}}}